| time (UTC) | temp F | wind direction | speed MPH | gust MPH | rain 1hr in | rain 24hr in | rain mn in | humidity % | barometer mb |
| 20260509140024 | 68 | 95 | 7.0 | 9.0 | 0.00 | 0.00 | 0.00 | 69 | 1015.0 |
| 20260509134521 | 67 | 92 | 7.0 | 9.0 | 0.00 | 0.00 | 0.00 | 69 | 1015.1 |
| 20260509133020 | 67 | 88 | 6.0 | 9.0 | 0.00 | 0.00 | 0.00 | 70 | 1015.3 |
| 20260509131515 | 67 | 100 | 6.0 | 9.0 | 0.00 | 0.00 | 0.00 | 70 | 1015.4 |
| 20260509130028 | 67 | 116 | 5.0 | 9.0 | 0.00 | 0.00 | 0.00 | 70 | 1015.4 |
| 20260509124513 | 67 | 103 | 6.0 | 8.0 | 0.00 | 0.00 | 0.00 | 69 | 1015.7 |
| 20260509123017 | 67 | 102 | 5.0 | 8.0 | 0.00 | 0.00 | 0.00 | 70 | 1015.8 |
| 20260509121512 | 67 | 101 | 5.0 | 7.0 | 0.00 | 0.00 | 0.00 | 70 | 1016.0 |
| 20260509120009 | 66 | 94 | 6.0 | 8.0 | 0.00 | 0.00 | 0.00 | 71 | 1016.0 |
| 20260509114508 | 66 | 81 | 6.0 | 9.0 | 0.00 | 0.00 | 0.00 | 72 | 1016.0 |
| 20260509113009 | 66 | 78 | 7.0 | 9.0 | 0.00 | 0.00 | 0.00 | 72 | 1016.1 |
| 20260509111506 | 66 | 73 | 7.0 | 10.0 | 0.00 | 0.00 | 0.00 | 73 | 1016.1 |
| 20260509110005 | 65 | 77 | 8.0 | 10.0 | 0.00 | 0.00 | 0.00 | 75 | 1016.2 |
| 20260509104509 | 65 | 73 | 8.0 | 11.0 | 0.00 | 0.00 | 0.00 | 76 | 1016.3 |
| 20260509103005 | 65 | 87 | 7.0 | 9.0 | 0.00 | 0.00 | 0.00 | 76 | 1016.4 |
| 20260509101507 | 65 | 85 | 6.0 | 8.0 | 0.00 | 0.00 | 0.00 | 76 | 1016.6 |
| 20260509100106 | 65 | 81 | 6.0 | 8.0 | 0.00 | 0.00 | 0.00 | 76 | 1016.6 |
| 20260509094606 | 65 | 79 | 6.0 | 8.0 | 0.00 | 0.00 | 0.00 | 76 | 1016.5 |
| 20260509093058 | 65 | 61 | 5.0 | 6.0 | 0.00 | 0.00 | 0.00 | 74 | 1016.5 |
| 20260509091604 | 66 | 79 | 6.0 | 8.0 | 0.00 | 0.00 | 0.00 | 73 | 1016.5 |
| 20260509090100 | 66 | 67 | 5.0 | 8.0 | 0.00 | 0.00 | 0.00 | 71 | 1016.5 |
| 20260509084554 | 67 | 31 | 4.0 | 5.0 | 0.00 | 0.00 | 0.00 | 66 | 1016.6 |
| 20260509083056 | 66 | 288 | 1.0 | 7.0 | 0.00 | 0.00 | 0.00 | 67 | 1016.6 |
| 20260509081542 | 65 | 258 | 5.0 | 8.0 | 0.00 | 0.00 | 0.00 | 69 | 1016.6 |
| 20260509080045 | 65 | 280 | 2.0 | 7.0 | 0.00 | 0.00 | 0.00 | 71 | 1016.8 |
| 20260509074543 | 63 | 268 | 6.0 | 9.0 | 0.00 | 0.00 | 0.00 | 72 | 1016.8 |
| 20260509073037 | 63 | 244 | 5.0 | 8.0 | 0.00 | 0.00 | 0.00 | 73 | 1016.9 |
| 20260509071540 | 62 | 295 | 5.0 | 8.0 | 0.00 | 0.00 | 0.00 | 74 | 1016.9 |
| 20260509070029 | 61 | 249 | 7.0 | 9.0 | 0.00 | 0.00 | 0.00 | 75 | 1016.9 |
| 20260509064528 | 60 | 256 | 7.0 | 9.0 | 0.00 | 0.00 | 0.00 | 76 | 1016.7 |
| 20260509063027 | 59 | 270 | 6.0 | 9.0 | 0.00 | 0.00 | 0.00 | 77 | 1016.7 |
| 20260509061525 | 59 | 264 | 6.0 | 8.0 | 0.00 | 0.00 | 0.00 | 78 | 1016.8 |
| 20260509060024 | 58 | 249 | 7.0 | 10.0 | 0.00 | 0.00 | 0.00 | 81 | 1016.8 |
| 20260509054522 | 58 | 257 | 6.0 | 8.0 | 0.00 | 0.00 | 0.00 | 83 | 1016.7 |
| 20260509053028 | 57 | 251 | 5.0 | 9.0 | 0.00 | 0.00 | 0.00 | 84 | 1016.7 |
| 20260509051518 | 57 | 243 | 7.0 | 11.0 | 0.00 | 0.00 | 0.00 | 84 | 1016.6 |
| 20260509050021 | 57 | 250 | 7.0 | 9.0 | 0.00 | 0.00 | 0.00 | 84 | 1016.4 |
| 20260509044515 | 57 | 250 | 4.0 | 9.0 | 0.00 | 0.00 | 0.00 | 85 | 1016.3 |
| 20260509043012 | 57 | 250 | 4.0 | 7.0 | 0.00 | 0.00 | 0.00 | 85 | 1016.1 |
| 20260509041509 | 57 | 249 | 3.0 | 7.0 | 0.00 | 0.00 | 0.00 | 86 | 1016.0 |
| 20260509040023 | 57 | 251 | 2.0 | 4.0 | 0.00 | 0.00 | 0.00 | 86 | 1015.8 |
| 20260509034507 | 57 | 251 | 4.0 | 7.0 | 0.00 | 0.00 | 0.00 | 86 | 1015.8 |
| 20260509033007 | 57 | 258 | 5.0 | 7.0 | 0.00 | 0.00 | 0.00 | 86 | 1015.9 |
| 20260509031506 | 57 | 250 | 5.0 | 8.0 | 0.00 | 0.00 | 0.00 | 86 | 1016.0 |
| 20260509030001 | 57 | 249 | 5.0 | 9.0 | 0.00 | 0.00 | 0.00 | 86 | 1015.9 |
| 20260509024602 | 57 | 359 | 5.0 | 8.0 | 0.00 | 0.00 | 0.00 | 85 | 1015.9 |
| 20260509023100 | 58 | 242 | 5.0 | 8.0 | 0.00 | 0.00 | 0.00 | 85 | 1016.0 |
| 20260509021557 | 58 | 257 | 8.0 | 11.0 | 0.00 | 0.00 | 0.00 | 84 | 1015.9 |
| 20260509014549 | 60 | 255 | 6.0 | 8.0 | 0.00 | 0.00 | 0.00 | 82 | 1015.8 |
| 20260509013048 | 61 | 216 | 4.0 | 6.0 | 0.00 | 0.00 | 0.00 | 82 | 1015.7 |
| 20260509011553 | 60 | 183 | 3.0 | 5.0 | 0.00 | 0.00 | 0.00 | 83 | 1015.6 |
| 20260509010043 | 60 | 245 | 4.0 | 7.0 | 0.00 | 0.00 | 0.00 | 84 | 1015.6 |
| 20260509004553 | 60 | 245 | 4.0 | 5.0 | 0.00 | 0.00 | 0.00 | 83 | 1015.5 |
| 20260509003050 | 61 | 245 | 4.0 | 7.0 | 0.00 | 0.00 | 0.00 | 83 | 1015.6 |
| 20260509001538 | 61 | 207 | 2.0 | 4.0 | 0.00 | 0.00 | 0.00 | 82 | 1015.6 |
| 20260509000034 | 62 | 176 | 1.0 | 4.0 | 0.00 | 0.00 | 0.00 | 83 | 1015.6 |
| 20260508234532 | 63 | 160 | 1.0 | 3.0 | 0.00 | 0.00 | 0.00 | 82 | 1015.5 |
| 20260508233031 | 63 | 158 | 0.0 | 1.0 | 0.00 | 0.00 | 0.00 | 82 | 1015.6 |
| 20260508231530 | 63 | 159 | 2.0 | 4.0 | 0.00 | 0.00 | 0.00 | 82 | 1015.7 |
| 20260508230059 | 62 | 160 | 0.0 | 0.0 | 0.00 | 0.00 | 0.00 | 82 | 1015.8 |
| 20260508224640 | 63 | 159 | 0.0 | 0.0 | 0.00 | 0.00 | 0.00 | 82 | 1015.8 |
| 20260508223056 | 63 | 160 | 0.0 | 0.0 | 0.00 | 0.00 | 0.00 | 81 | 1015.7 |
| 20260508221554 | 63 | 160 | 0.0 | 0.0 | 0.00 | 0.00 | 0.00 | 80 | 1015.7 |
| 20260508220055 | 64 | 160 | 0.0 | 0.0 | 0.00 | 0.00 | 0.00 | 80 | 1015.7 |
| 20260508214552 | 64 | 160 | 0.0 | 0.0 | 0.00 | 0.00 | 0.00 | 78 | 1015.7 |
| 20260508213048 | 63 | 159 | 0.0 | 0.0 | 0.00 | 0.00 | 0.00 | 77 | 1015.7 |
| 20260508211552 | 63 | 160 | 0.0 | 0.0 | 0.00 | 0.00 | 0.00 | 76 | 1015.5 |
| 20260508210048 | 63 | 159 | 0.0 | 0.0 | 0.00 | 0.00 | 0.00 | 76 | 1015.5 |
| 20260508204546 | 63 | 159 | 0.0 | 0.0 | 0.00 | 0.00 | 0.00 | 77 | 1015.5 |
| 20260508203044 | 63 | 159 | 0.0 | 0.0 | 0.00 | 0.00 | 0.00 | 77 | 1015.4 |
| 20260508201542 | 63 | 160 | 0.0 | 2.0 | 0.00 | 0.00 | 0.00 | 78 | 1015.5 |
| 20260508200040 | 64 | 160 | 1.0 | 5.0 | 0.00 | 0.00 | 0.00 | 78 | 1015.4 |
| 20260508194541 | 64 | 151 | 2.0 | 5.0 | 0.00 | 0.00 | 0.00 | 78 | 1015.2 |
| 20260508193035 | 64 | 170 | 1.0 | 3.0 | 0.00 | 0.00 | 0.00 | 77 | 1015.1 |
| 20260508191541 | 64 | 176 | 1.0 | 4.0 | 0.00 | 0.00 | 0.00 | 76 | 1015.0 |
| 20260508190035 | 64 | 166 | 3.0 | 5.0 | 0.00 | 0.00 | 0.00 | 75 | 1014.8 |
| 20260508184536 | 64 | 183 | 2.0 | 4.0 | 0.00 | 0.00 | 0.00 | 76 | 1014.7 |
| 20260508183034 | 64 | 172 | 2.0 | 4.0 | 0.00 | 0.00 | 0.00 | 76 | 1014.5 |
| 20260508181532 | 64 | 165 | 2.0 | 6.0 | 0.00 | 0.00 | 0.00 | 76 | 1014.3 |
| 20260508180033 | 64 | 153 | 3.0 | 6.0 | 0.00 | 0.00 | 0.00 | 77 | 1014.2 |
| 20260508174533 | 64 | 145 | 2.0 | 4.0 | 0.00 | 0.00 | 0.00 | 77 | 1014.3 |
| 20260508173101 | 64 | 156 | 3.0 | 5.0 | 0.00 | 0.00 | 0.00 | 76 | 1014.2 |
| 20260508171600 | 65 | 160 | 2.0 | 6.0 | 0.00 | 0.00 | 0.00 | 76 | 1014.1 |
| 20260508170058 | 65 | 154 | 3.0 | 5.0 | 0.00 | 0.00 | 0.00 | 75 | 1014.1 |
| 20260508164558 | 65 | 159 | 0.0 | 6.0 | 0.00 | 0.00 | 0.00 | 75 | 1014.2 |
| 20260508163057 | 65 | 155 | 3.0 | 5.0 | 0.00 | 0.00 | 0.00 | 74 | 1014.1 |
| 20260508161600 | 65 | 135 | 2.0 | 4.0 | 0.00 | 0.00 | 0.00 | 74 | 1014.0 |
| 20260508160054 | 65 | 113 | 3.0 | 4.0 | 0.00 | 0.00 | 0.00 | 74 | 1014.0 |
| 20260508154610 | 65 | 112 | 3.0 | 6.0 | 0.00 | 0.00 | 0.00 | 74 | 1014.0 |
| 20260508153054 | 65 | 87 | 2.0 | 4.0 | 0.00 | 0.00 | 0.00 | 75 | 1014.1 |
| 20260508151554 | 64 | 86 | 3.0 | 4.0 | 0.00 | 0.00 | 0.00 | 74 | 1014.1 |
| 20260508150059 | 65 | 81 | 2.0 | 5.0 | 0.00 | 0.00 | 0.00 | 75 | 1014.1 |
| 20260508144550 | 65 | 72 | 4.0 | 5.0 | 0.00 | 0.00 | 0.00 | 75 | 1014.2 |
| 20260508143106 | 64 | 58 | 3.0 | 4.0 | 0.00 | 0.00 | 0.00 | 76 | 1014.3 |
| 20260508141550 | 64 | 66 | 3.0 | 6.0 | 0.00 | 0.00 | 0.00 | 77 | 1014.4 |